RYR76UD LERS-EGSS

Flight info

Callsign RYR76UD
Flight time 1h 40m
Altitude 32000
Route NATPI DCT EVNAM DCT TUPAR UN861 DIKRO UM185 TELTU
Aircraft B738/M-SDE3FGILRWY/SB1

Departure

Time 2026-05-04 16:25
Airport Reus Airport (LERS)

Arrival

Time 2026-05-04 18:05
Airport London Stansted Airport (EGSS)
Time Latitude Longitude Altitude Speed Heading
2026-05-04 15:50 41.14664 1.15561 245 ft 0 kts 339°
2026-05-04 16:15 41.14645 1.15571 245 ft 4 kts 339°
2026-05-04 16:16 41.14600 1.15587 245 ft 4 kts 22°
2026-05-04 16:16 41.14576 1.15551 245 ft 0 kts 69°
2026-05-04 16:19 41.14580 1.15564 245 ft 6 kts 69°
2026-05-04 16:19 41.14633 1.15747 245 ft 14 kts 69°
2026-05-04 16:20 41.14777 1.16240 245 ft 26 kts 69°
2026-05-04 16:20 41.14918 1.16719 245 ft 27 kts 69°
2026-05-04 16:21 41.15103 1.17356 244 ft 23 kts 69°
2026-05-04 16:22 41.15220 1.17752 244 ft 27 kts 69°
2026-05-04 16:22 41.15316 1.18245 244 ft 7 kts 153°
2026-05-04 16:23 41.15300 1.18254 245 ft 0 kts 158°
2026-05-04 16:24 41.14872 1.17172 245 ft 130 kts 249°
2026-05-04 16:25 41.13994 1.14485 1282 ft 166 kts 226°
2026-05-04 16:26 41.10755 1.08010 2796 ft 254 kts 239°
2026-05-04 16:26 41.08138 1.01936 5648 ft 252 kts 239°
2026-05-04 16:27 41.06381 0.97834 7216 ft 259 kts 239°
2026-05-04 16:28 41.03652 0.91550 7883 ft 267 kts 248°
2026-05-04 16:28 41.05001 0.84734 7889 ft 278 kts 315°
2026-05-04 16:29 41.12651 0.84610 9026 ft 304 kts 17°
2026-05-04 16:30 41.18846 0.87562 10532 ft 342 kts 18°
2026-05-04 16:31 41.23522 0.89736 11358 ft 368 kts 17°
2026-05-04 16:31 41.30900 0.93140 13603 ft 379 kts 17°
2026-05-04 16:32 41.38311 0.97344 15419 ft 394 kts 35°
2026-05-04 16:33 41.42766 1.01766 16558 ft 404 kts 37°
2026-05-04 16:33 41.47353 1.06265 17746 ft 413 kts 36°
2026-05-04 16:34 41.52075 1.10767 18733 ft 423 kts 35°
2026-05-04 16:34 41.54536 1.12932 18867 ft 423 kts 25°
2026-05-04 16:35 41.63001 1.15834 19282 ft 424 kts 11°
2026-05-04 16:35 41.71629 1.18577 20933 ft 430 kts 11°
2026-05-04 16:36 41.74550 1.19525 21370 ft 435 kts 11°
2026-05-04 16:36 41.80474 1.21462 22384 ft 441 kts 11°
2026-05-04 16:37 41.86488 1.23434 23271 ft 449 kts 11°
2026-05-04 16:37 41.89534 1.24433 23663 ft 453 kts 11°
2026-05-04 16:37 41.95693 1.26457 24437 ft 458 kts 11°
2026-05-04 16:38 42.01913 1.28508 25223 ft 462 kts 12°
2026-05-04 16:39 42.11377 1.31623 26274 ft 470 kts 12°
2026-05-04 16:39 42.17745 1.33732 26977 ft 474 kts 12°
2026-05-04 16:40 42.24265 1.34569 27589 ft 472 kts 348°
2026-05-04 16:40 42.30698 1.33089 28239 ft 474 kts 346°
2026-05-04 16:41 42.37220 1.31505 28835 ft 479 kts 346°
2026-05-04 16:41 42.47157 1.29243 29618 ft 484 kts 347°
2026-05-04 16:42 42.57120 1.27033 30663 ft 483 kts 346°
2026-05-04 16:43 42.63735 1.25550 31457 ft 479 kts 346°
2026-05-04 16:43 42.70322 1.24067 31920 ft 484 kts 346°
2026-05-04 16:43 42.73656 1.23345 31920 ft 486 kts 348°
2026-05-04 16:45 42.93606 1.20702 31961 ft 480 kts 349°
2026-05-04 16:46 43.10280 1.18392 31962 ft 484 kts 351°
2026-05-04 16:47 43.22590 1.16684 31970 ft 488 kts 351°
2026-05-04 16:48 43.36098 1.14804 31945 ft 487 kts 351°
2026-05-04 16:49 43.49603 1.12915 31952 ft 488 kts 351°
2026-05-04 16:50 43.62915 1.10082 31940 ft 477 kts 334°
2026-05-04 16:51 43.72010 1.04583 31945 ft 476 kts 332°
2026-05-04 16:52 43.84158 0.97172 31930 ft 478 kts 332°
2026-05-04 16:53 43.93325 0.91652 31925 ft 479 kts 333°
2026-05-04 16:54 44.05575 0.84248 31931 ft 481 kts 333°
2026-05-04 16:55 44.18091 0.76640 32490 ft 497 kts 333°
2026-05-04 16:55 44.24361 0.72829 33699 ft 486 kts 332°
2026-05-04 16:56 44.30573 0.69034 34171 ft 489 kts 332°
2026-05-04 16:56 44.39874 0.63333 35157 ft 483 kts 332°
2026-05-04 16:57 44.42949 0.61443 35484 ft 482 kts 332°
2026-05-04 16:57 44.49077 0.57674 36092 ft 480 kts 332°
2026-05-04 16:58 44.58213 0.52037 36939 ft 477 kts 332°
2026-05-04 16:58 44.61245 0.50161 37233 ft 476 kts 332°
2026-05-04 16:59 44.67289 0.46417 37759 ft 474 kts 332°
2026-05-04 17:00 44.79398 0.38883 37927 ft 474 kts 332°
2026-05-04 17:01 44.94379 0.29530 37928 ft 469 kts 332°
2026-05-04 17:02 45.06280 0.22052 37929 ft 468 kts 332°
2026-05-04 17:03 45.15218 0.16416 37917 ft 470 kts 332°
2026-05-04 17:03 45.24201 0.10730 37928 ft 473 kts 332°
2026-05-04 17:04 45.36264 0.03064 37923 ft 476 kts 332°
2026-05-04 17:05 45.48388 -0.04672 37939 ft 478 kts 332°
2026-05-04 17:06 45.57434 -0.10471 37927 ft 477 kts 332°
2026-05-04 17:07 45.65510 -0.15663 37934 ft 475 kts 333°
2026-05-04 17:07 45.72490 -0.20168 37922 ft 472 kts 333°
2026-05-04 17:08 45.81444 -0.25964 37927 ft 470 kts 333°
2026-05-04 17:09 45.87399 -0.29829 37929 ft 469 kts 333°
2026-05-04 17:09 45.93345 -0.33697 37930 ft 469 kts 333°
2026-05-04 17:10 46.08201 -0.43403 37934 ft 471 kts 333°
2026-05-04 17:11 46.14169 -0.47318 37937 ft 472 kts 333°
2026-05-04 17:12 46.23153 -0.53229 37936 ft 475 kts 332°
2026-05-04 17:13 46.38208 -0.63183 37952 ft 477 kts 332°
2026-05-04 17:14 46.47743 -0.67346 37948 ft 483 kts 351°
2026-05-04 17:14 46.51085 -0.67880 37947 ft 483 kts 352°
2026-05-04 17:15 46.61113 -0.69383 37953 ft 482 kts 352°
2026-05-04 17:16 46.74373 -0.71580 37946 ft 480 kts 351°
2026-05-04 17:17 46.87605 -0.73831 37949 ft 478 kts 351°
2026-05-04 17:18 47.00790 -0.76078 37964 ft 476 kts 351°
2026-05-04 17:19 47.13945 -0.78327 37948 ft 476 kts 351°
2026-05-04 17:20 47.27077 -0.80585 37946 ft 475 kts 352°
2026-05-04 17:20 47.36927 -0.82286 37936 ft 476 kts 352°
2026-05-04 17:21 47.50039 -0.84561 37935 ft 476 kts 352°
2026-05-04 17:22 47.56626 -0.85652 37939 ft 476 kts 353°
2026-05-04 17:23 47.69833 -0.87194 37938 ft 476 kts 354°
2026-05-04 17:24 47.79727 -0.88373 37934 ft 476 kts 354°
2026-05-04 17:25 47.92925 -0.90000 37945 ft 476 kts 354°
2026-05-04 17:26 48.06133 -0.91636 37942 ft 476 kts 354°
2026-05-04 17:27 48.22635 -0.93687 37956 ft 475 kts 354°
2026-05-04 17:28 48.35767 -0.95327 37955 ft 475 kts 354°
2026-05-04 17:29 48.55549 -0.97816 37970 ft 475 kts 354°
2026-05-04 17:31 48.72006 -0.99908 37977 ft 474 kts 354°
2026-05-04 17:32 48.88388 -1.01994 37980 ft 471 kts 354°
2026-05-04 17:33 49.01442 -1.03670 37984 ft 470 kts 354°
2026-05-04 17:34 49.14456 -1.05349 37985 ft 469 kts 354°
2026-05-04 17:35 49.30705 -1.07459 37989 ft 468 kts 354°
2026-05-04 17:36 49.37146 -1.08299 37992 ft 468 kts 354°
2026-05-04 17:36 49.43628 -1.09146 37990 ft 467 kts 354°
2026-05-04 17:37 49.49051 -1.09858 37997 ft 467 kts 354°
2026-05-04 17:37 49.55535 -1.10469 37973 ft 468 kts
2026-05-04 17:37 49.58722 -1.09500 38006 ft 467 kts 19°
2026-05-04 17:38 49.61683 -1.07477 37982 ft 466 kts 32°
2026-05-04 17:38 49.66797 -1.01407 37461 ft 472 kts 40°
2026-05-04 17:38 49.69386 -0.98214 36939 ft 469 kts 39°
2026-05-04 17:39 49.74734 -0.92583 35756 ft 471 kts 26°
2026-05-04 17:39 49.77836 -0.90739 35118 ft 473 kts 17°
2026-05-04 17:39 49.81024 -0.89705 34430 ft 477 kts
2026-05-04 17:40 49.84330 -0.89244 33830 ft 477 kts
2026-05-04 17:40 49.87628 -0.88869 33297 ft 474 kts
2026-05-04 17:40 49.90903 -0.88481 32793 ft 470 kts
2026-05-04 17:40 49.94155 -0.88051 32317 ft 467 kts
2026-05-04 17:41 49.97372 -0.87593 31846 ft 463 kts
2026-05-04 17:41 50.00562 -0.87126 31416 ft 458 kts
2026-05-04 17:41 50.03727 -0.86669 30961 ft 455 kts
2026-05-04 17:41 50.06870 -0.86224 30516 ft 452 kts
2026-05-04 17:42 50.09991 -0.85785 30086 ft 449 kts
2026-05-04 17:42 50.13086 -0.85349 29571 ft 445 kts
2026-05-04 17:42 50.16160 -0.84915 29092 ft 442 kts
2026-05-04 17:42 50.19202 -0.84483 28626 ft 437 kts
2026-05-04 17:43 50.22215 -0.84055 28181 ft 432 kts
2026-05-04 17:43 50.25202 -0.83629 27727 ft 429 kts
2026-05-04 17:43 50.28163 -0.83206 27271 ft 426 kts
2026-05-04 17:43 50.31113 -0.82805 26818 ft 424 kts
2026-05-04 17:44 50.34040 -0.82386 26377 ft 421 kts
2026-05-04 17:44 50.36946 -0.81968 25927 ft 417 kts
2026-05-04 17:44 50.39833 -0.81584 25491 ft 414 kts
2026-05-04 17:44 50.42708 -0.81108 25054 ft 416 kts
2026-05-04 17:45 50.45579 -0.80655 24627 ft 414 kts
2026-05-04 17:45 50.48434 -0.80224 24192 ft 411 kts
2026-05-04 17:45 50.51282 -0.79834 23760 ft 410 kts
2026-05-04 17:45 50.54107 -0.79473 23249 ft 410 kts
2026-05-04 17:46 50.56957 -0.79027 22778 ft 407 kts
2026-05-04 17:46 50.59771 -0.78591 22329 ft 404 kts
2026-05-04 17:46 50.62553 -0.78173 21890 ft 400 kts
2026-05-04 17:46 50.65309 -0.77773 21450 ft 395 kts
2026-05-04 17:47 50.68030 -0.77384 21033 ft 391 kts
2026-05-04 17:47 50.70724 -0.76999 20608 ft 387 kts
2026-05-04 17:47 50.73389 -0.76615 20194 ft 383 kts
2026-05-04 17:47 50.76033 -0.76234 19780 ft 380 kts
2026-05-04 17:48 50.78655 -0.75855 19365 ft 377 kts
2026-05-04 17:48 50.81243 -0.75394 18974 ft 372 kts 13°
2026-05-04 17:48 50.82861 -0.74595 18856 ft 364 kts 22°
2026-05-04 17:48 50.85952 -0.72586 18602 ft 355 kts 24°
2026-05-04 17:49 50.88210 -0.71073 18414 ft 351 kts 24°
2026-05-04 17:49 50.90451 -0.69577 18238 ft 358 kts 23°
2026-05-04 17:49 50.92765 -0.68045 18028 ft 362 kts 23°
2026-05-04 17:49 50.95083 -0.66524 17817 ft 359 kts 23°
2026-05-04 17:50 50.97381 -0.65026 17621 ft 355 kts 23°
2026-05-04 17:50 50.99660 -0.63543 17426 ft 353 kts 23°
2026-05-04 17:50 51.01925 -0.62072 17242 ft 351 kts 23°
2026-05-04 17:50 51.04185 -0.60605 17077 ft 350 kts 23°
2026-05-04 17:51 51.06435 -0.59144 16891 ft 349 kts 22°
2026-05-04 17:51 51.08690 -0.57678 16699 ft 350 kts 23°
2026-05-04 17:51 51.10937 -0.56216 16522 ft 350 kts 22°
2026-05-04 17:51 51.13190 -0.54749 16343 ft 350 kts 22°
2026-05-04 17:52 51.15443 -0.53281 16158 ft 350 kts 23°
2026-05-04 17:52 51.17699 -0.51808 15979 ft 348 kts 22°
2026-05-04 17:52 51.19934 -0.50355 15657 ft 346 kts 22°
2026-05-04 17:52 51.22129 -0.48913 15185 ft 337 kts 23°
2026-05-04 17:53 51.24299 -0.47483 14506 ft 337 kts 22°
2026-05-04 17:53 51.26460 -0.46079 13878 ft 333 kts 22°
2026-05-04 17:53 51.28598 -0.44678 13158 ft 332 kts 22°
2026-05-04 17:53 51.30722 -0.43281 12509 ft 328 kts 22°
2026-05-04 17:54 51.32817 -0.41900 12003 ft 321 kts 22°
2026-05-04 17:54 51.34843 -0.40564 11699 ft 310 kts 22°
2026-05-04 17:54 51.36818 -0.39264 11309 ft 304 kts 22°
2026-05-04 17:54 51.38736 -0.37999 11020 ft 294 kts 22°
2026-05-04 17:55 51.40611 -0.36761 10614 ft 291 kts 22°
2026-05-04 17:55 51.42476 -0.35532 10165 ft 289 kts 22°
2026-05-04 17:55 51.44160 -0.34225 9811 ft 284 kts 32°
2026-05-04 17:55 51.45770 -0.32392 9288 ft 285 kts 38°
2026-05-04 17:56 51.47301 -0.30469 8841 ft 283 kts 38°
2026-05-04 17:56 51.48838 -0.28513 8449 ft 278 kts 38°
2026-05-04 17:56 51.50364 -0.26583 7986 ft 278 kts 38°
2026-05-04 17:56 51.51872 -0.24692 7655 ft 272 kts 38°
2026-05-04 17:57 51.53365 -0.22835 7388 ft 272 kts 38°
2026-05-04 17:57 51.54865 -0.20979 7098 ft 273 kts 37°
2026-05-04 17:57 51.56369 -0.19123 6830 ft 273 kts 37°
2026-05-04 17:57 51.57877 -0.17266 6581 ft 273 kts 37°
2026-05-04 17:58 51.59384 -0.15414 6284 ft 271 kts 37°
2026-05-04 17:58 51.60665 -0.13839 6015 ft 266 kts 37°
2026-05-04 17:58 51.62113 -0.12054 5746 ft 259 kts 37°
2026-05-04 17:58 51.63546 -0.10286 5498 ft 261 kts 37°
2026-05-04 17:59 51.64993 -0.08506 5240 ft 264 kts 37°
2026-05-04 17:59 51.66375 -0.06801 4976 ft 264 kts 37°
2026-05-04 17:59 51.69210 -0.03301 4428 ft 248 kts 37°
2026-05-04 18:00 51.70558 -0.01637 4181 ft 240 kts 37°
2026-05-04 18:00 51.71856 -0.00031 3945 ft 230 kts 37°
2026-05-04 18:00 51.73091 0.01495 3725 ft 217 kts 37°
2026-05-04 18:00 51.74054 0.02686 3534 ft 207 kts 37°
2026-05-04 18:01 51.75159 0.04056 3343 ft 194 kts 37°
2026-05-04 18:01 51.76192 0.05337 3137 ft 182 kts 37°
2026-05-04 18:01 51.77151 0.06529 2936 ft 171 kts 39°
2026-05-04 18:02 51.78893 0.09013 2643 ft 164 kts 43°
2026-05-04 18:02 51.79700 0.10227 2521 ft 162 kts 43°
2026-05-04 18:02 51.80538 0.11489 2310 ft 166 kts 43°
2026-05-04 18:02 51.81351 0.12716 2102 ft 154 kts 42°
2026-05-04 18:03 51.82116 0.13869 1895 ft 147 kts 43°
2026-05-04 18:03 51.82848 0.14974 1689 ft 140 kts 41°
2026-05-04 18:03 51.83566 0.16051 1521 ft 140 kts 41°
2026-05-04 18:03 51.84279 0.17128 1317 ft 143 kts 42°
2026-05-04 18:04 51.84996 0.18218 1089 ft 141 kts 42°
2026-05-04 18:04 51.85721 0.19308 923 ft 142 kts 41°
2026-05-04 18:04 51.87179 0.21506 530 ft 148 kts 41°
2026-05-04 18:05 51.87934 0.22640 349 ft 146 kts 42°
2026-05-04 18:05 51.88601 0.23631 346 ft 103 kts 43°
2026-05-04 18:05 51.88977 0.24195 347 ft 44 kts 45°
2026-05-04 18:05 51.89106 0.24560 356 ft 30 kts 68°
2026-05-04 18:06 51.89156 0.24883 356 ft 13 kts 109°
2026-05-04 18:06 51.89196 0.25009 351 ft 13 kts 50°
2026-05-04 18:06 51.89241 0.25123 355 ft 12 kts 73°
2026-05-04 18:07 51.89204 0.25238 353 ft 12 kts 120°
2026-05-04 18:07 51.89226 0.25355 358 ft 12 kts 41°
2026-05-04 18:07 51.89285 0.25442 353 ft 11 kts 43°
2026-05-04 18:07 51.89343 0.25528 351 ft 11 kts 43°
2026-05-04 18:08 51.89355 0.25635 354 ft 11 kts 124°
2026-05-04 18:08 51.89304 0.25725 351 ft 11 kts 133°
2026-05-04 18:08 51.89254 0.25812 356 ft 10 kts 133°
2026-05-04 18:08 51.89246 0.25890 351 ft 2 kts 44°
2026-05-04 18:09 51.89262 0.25915 351 ft 1 kts 43°
2026-05-04 18:09 51.89263 0.25917 351 ft 0 kts 43°